Theta_e
290 291 293 294 296 299 301 304 306 308 312 315 313 309 309 309 312 315 311 314 313 307 307 307 303 303 302 303 303 303 301 301 301 304 305 303 302 298 296 295 296 296 296
289 291 292 292 293 295 296 297 300 299 300 301 302 302 302 304 305 305 303 301 301 299 299 298 298 299 297 298 299 297 297 298 297 296 297 296 296 294 292 291 292 293 292
289 289 289 290 290 291 292 293 295 295 295 295 296 296 297 298 300 299 299 297 296 295 295 293 293 294 293 295 294 294 293 294 294 293 291 292 290 290 288 288 288 288 290
288 288 287 287 288 289 290 290 291 292 292 292 293 293 293 295 295 296 295 295 293 292 291 291 290 290 290 291 291 291 291 290 290 289 288 288 288 287 285 285 284 286 286
287 287 286 287 287 288 288 289 290 290 290 290 290 291 291 292 293 293 294 293 292 290 290 289 289 288 289 290 289 289 289 288 287 286 285 285 285 284 283 284 283 284 285
287 286 286 286 286 286 287 287 288 288 288 288 288 288 288 290 291 292 291 290 289 288 287 286 287 286 289 290 290 290 289 286 285 285 283 283 283 283 283 282 281 280 280
285 286 286 285 284 285 285 285 285 285 286 286 286 287 287 288 290 290 289 288 287 286 286 286 285 286 285 286 287 288 286 287 287 284 282 283 282 283 282 281 281 281 280
285 285 285 285 284 284 284 284 283 283 283 284 285 285 285 287 289 289 288 286 285 284 285 285 284 284 285 284 283 283 283 283 284 285 283 283 283 284 283 282 282 281 281
281 281 283 283 284 283 282 282 281 281 281 282 283 283 283 285 288 288 287 285 284 283 283 283 284 283 286 286 282 281 280 282 285 286 287 287 286 286 284 282 279 278 277
280 281 281 282 281 281 281 280 281 281 281 281 282 281 282 282 286 287 285 283 282 282 282 282 284 284 285 285 281 280 277 280 282 279 281 283 283 283 284 282 281 277 277
279 280 280 281 281 281 280 281 280 280 280 279 280 280 281 281 283 286 286 283 282 281 281 280 281 284 285 284 284 282 282 282 282 280 276 277 280 281 281 282 282 281 278
277 276 276 277 280 281 278 278 278 278 276 276 276 277 279 280 283 284 284 284 283 279 279 279 280 283 283 284 282 283 283 280 277 279 279 279 279 280 280 281 282 282 282
272 271 273 275 278 279 277 276 276 275 275 276 277 276 276 279 279 283 284 282 282 278 279 281 282 282 282 280 283 281 276 277 278 278 278 278 279 280 281 280 277 274 271
271 272 273 273 274 275 279 279 276 274 274 276 275 274 273 274 275 277 279 277 279 277 278 276 280 281 281 278 274 275 274 272 277 277 277 279 279 279 279 279 278 278 272
276 277 275 274 274 274 276 276 277 276 277 272 271 273 270 269 274 279 277 274 271 276 269 269 268 267 267 268 267 269 269 272 277 277 277 277 278 278 278 278 278 276 274
280 280 278 275 273 274 273 273 282 280 282 283 283 276 273 279 281 280 280 280 279 279 267 264 263 263 264 263 265 265 264 273 276 277 277 277 276 275 270 269 268 275 273
279 276 276 276 275 274 272 271 274 278 280 280 281 281 281 279 279 280 279 279 279 276 263 262 261 261 262 262 263 270 273 270 276 276 276 276 276 275 268 262 263 270 266
279 274 277 277 277 274 274 274 272 270 268 265 275 276 279 279 278 278 278 275 265 266 261 260 260 261 261 264 269 272 271 262 266 270 264 266 267 262 267 267 261 261 260
280 278 278 275 276 276 273 273 273 273 272 265 263 272 272 278 277 276 278 264 263 260 260 260 259 259 260 262 272 272 274 263 262 261 262 262 262 262 261 261 261 263 262
279 277 277 278 275 274 273 272 268 271 270 271 269 269 261 264 263 262 262 262 262 264 264 264 262 262 262 263 266 272 273 263 262 261 261 261 261 261 262 261 260 261 260
279 280 280 278 277 277 277 275 275 273 274 272 272 269 272 267 268 268 265 265 266 265 265 264 264 262 260 260 261 262 261 264 261 261 261 261 260 262 261 261 260 260 259
279 280 281 280 280 278 279 279 275 274 272 272 267 270 281 265 267 269 268 268 267 266 265 265 264 263 262 261 259 258 259 260 259 260 260 260 261 261 261 261 260 260 259
279 279 280 280 280 280 280 279 278 275 274 274 273 271 272 271 269 269 270 268 266 266 264 264 263 262 261 261 261 261 260 260 259 258 259 259 261 262 262 261 259 258 258
280 280 280 279 280 280 280 279 279 277 275 274 273 272 271 272 271 271 270 269 268 267 266 265 265 266 266 267 266 264 264 262 260 261 262 260 260 261 262 262 260 258 257
280 280 280 279 279 280 280 278 277 276 274 274 274 274 272 271 271 271 270 270 269 268 267 267 267 266 266 266 267 266 267 269 265 263 264 262 263 262 260 260 261 260 258
279 280 280 280 279 279 279 278 275 275 274 274 274 274 273 272 272 271 271 270 269 269 268 267 267 266 267 267 266 266 267 268 267 265 265 264 264 264 260 261 261 260 261
Wind_Speed
10 10 10 9 10 9 8 8 8 6 6 4 7 9 8 6 5 4 6 3 3 7 7 7 8 7 5 4 4 3 4 3 2 2 2 5 5 9 9 9 7 7 8
10 10 9 9 9 9 8 9 8 9 9 9 10 10 9 7 8 7 8 8 9 10 9 9 9 6 7 6 5 5 5 4 2 3 3 4 3 7 9 10 9 8 8
9 9 9 10 9 9 9 9 9 10 11 11 12 11 11 9 8 8 8 11 11 10 9 10 9 8 8 6 6 5 4 4 4 3 3 4 3 6 11 7 8 8 8
8 8 9 9 9 8 9 9 10 10 11 12 11 12 12 9 10 5 12 10 11 10 11 10 10 9 8 6 6 6 4 4 4 4 3 5 4 6 3 10 13 11 14
9 9 9 9 9 8 8 8 9 10 10 11 11 13 12 12 7 10 10 10 9 10 10 10 10 8 11 11 5 5 5 4 3 3 4 4 6 9 11 9 10 11 13
7 8 8 8 8 9 9 8 9 10 10 10 12 12 13 9 18 16 10 8 9 9 9 8 8 8 9 12 10 11 10 5 6 5 3 7 8 7 7 8 8 9 9
6 8 6 7 8 9 9 10 9 10 10 10 10 12 11 10 17 16 14 9 9 8 7 7 7 6 7 6 10 11 12 15 14 6 6 6 6 8 8 8 9 8 10
6 7 7 7 7 7 8 9 8 6 8 9 10 11 10 9 16 16 11 8 8 9 8 7 6 8 10 7 5 6 6 6 7 5 3 3 3 8 8 6 7 8 8
5 5 5 5 6 7 8 8 5 5 7 7 8 10 11 11 15 11 8 4 7 9 9 7 8 7 12 11 6 7 5 8 7 12 11 12 13 13 12 5 7 9 8
4 4 4 4 6 5 6 3 4 4 6 6 8 9 12 10 13 13 6 2 7 6 6 7 13 10 13 15 7 5 6 8 8 5 6 8 9 10 15 8 6 7 8
3 3 4 5 5 5 5 4 3 3 4 6 9 6 5 6 11 13 12 5 4 4 5 5 3 13 16 14 12 7 8 6 7 4 3 3 7 9 7 7 7 4 5
4 4 3 4 3 3 4 2 3 4 4 3 3 3 4 4 9 13 13 10 9 6 5 3 4 12 13 15 10 13 11 7 3 5 7 8 8 9 8 7 6 5 1
4 2 3 3 4 4 3 2 2 2 2 2 3 3 2 2 3 10 12 12 11 5 3 7 10 11 12 9 12 11 6 4 7 7 7 6 6 5 6 5 4 6 4
5 3 2 2 2 0 1 2 2 2 3 3 2 3 2 2 2 3 4 4 7 5 5 3 6 8 9 6 3 5 4 4 5 5 4 4 4 5 6 5 5 7 3
3 3 3 3 4 2 1 2 2 1 2 3 3 3 4 2 1 4 4 2 2 3 3 4 4 3 2 3 3 4 4 4 5 4 4 4 5 5 6 5 5 5 6
7 7 5 3 3 3 3 1 3 4 3 3 5 5 1 6 6 7 7 7 6 4 5 2 1 2 3 2 4 4 3 5 4 4 4 5 3 4 4 4 3 5 6
10 7 5 5 5 5 4 4 5 3 2 1 2 6 8 6 6 7 8 8 7 5 3 1 2 2 2 2 2 3 4 3 4 4 4 4 3 2 3 2 3 2 2
10 8 7 7 6 6 6 6 5 5 4 3 6 6 7 7 7 8 10 7 3 4 2 3 3 3 2 2 2 2 3 3 3 3 2 2 3 1 2 2 3 2 3
10 7 7 5 5 6 5 5 5 6 7 4 1 6 6 9 7 5 9 3 4 3 3 3 3 3 3 2 2 1 1 0 1 1 2 2 2 2 2 3 2 3 2
11 10 9 7 5 5 5 5 4 4 4 4 4 5 3 2 3 3 2 2 3 4 4 5 4 3 3 4 3 2 1 1 1 1 1 1 2 2 1 2 2 1 2
10 10 13 7 8 8 8 8 8 7 8 6 6 5 13 5 5 5 4 4 4 4 4 4 3 3 3 3 3 3 3 2 2 1 0 1 2 1 1 1 0 2 2
11 11 11 12 10 10 10 9 8 8 7 7 5 6 19 5 5 5 6 6 6 5 5 5 4 4 4 4 4 3 2 2 1 1 0 1 0 1 0 0 0 0 1
13 13 12 12 11 11 10 10 9 10 10 9 8 7 7 7 7 7 7 6 5 5 4 5 5 4 3 4 4 4 4 4 4 4 2 0 1 1 1 2 2 1 1
12 14 14 13 12 12 12 11 10 11 10 9 9 8 9 8 8 9 8 6 6 6 6 6 6 7 6 5 5 4 4 4 3 4 5 3 2 2 2 2 3 3 3
11 12 13 12 12 13 12 11 10 10 10 10 9 9 9 8 8 8 7 6 7 6 8 7 7 8 9 9 8 7 6 8 5 4 3 3 4 4 3 3 3 3 3
11 12 11 10 10 11 11 11 11 10 11 10 9 9 9 10 9 8 8 8 8 8 8 7 8 10 10 9 10 10 9 8 6 7 5 4 4 4 3 4 5 3 3
Wind_Direction
343 339 338 343 339 334 340 338 338 13 2 16 63 66 62 49 34 89 62 24 61 65 36 80 70 61 59 53 53 32 53 25 317 338 323 344 9 8 359 347 345 344 334
346 347 356 355 358 8 8 9 21 38 45 51 61 65 52 42 49 61 77 70 76 69 60 61 51 60 57 51 49 52 47 40 351 331 324 349 4 0 355 338 336 341 328
354 360 4 7 10 19 22 31 43 52 54 54 57 59 54 44 51 62 68 79 74 71 67 67 53 50 45 39 50 51 43 42 34 359 326 358 348 4 341 333 338 329 325
4 9 15 12 15 21 29 36 49 57 65 63 63 60 52 50 47 48 74 74 78 74 72 66 64 60 62 50 50 42 36 53 42 28 353 353 348 344 328 350 345 345 327
16 18 16 15 19 24 38 45 49 59 62 67 68 65 60 53 44 49 66 79 86 81 76 70 60 66 64 60 60 37 35 42 34 27 25 1 355 358 1 341 336 331 316
30 28 19 26 25 22 29 40 50 56 63 69 73 72 68 61 53 60 74 76 71 70 75 65 63 44 55 56 60 58 56 46 32 12 15 17 2 358 344 345 334 342 348
30 16 24 29 37 26 31 37 35 48 54 55 65 72 68 68 67 64 65 71 72 64 56 60 59 48 42 48 48 50 51 51 47 31 10 23 356 351 342 350 345 330 321
41 34 19 24 40 40 43 44 38 46 54 57 57 64 64 57 62 68 70 74 78 69 59 49 57 45 39 39 41 53 56 49 36 28 7 359 9 5 6 351 337 318 309
41 34 40 33 55 54 52 34 26 43 53 54 51 59 57 52 53 70 65 90 84 73 63 49 48 42 42 46 50 51 45 44 16 22 26 31 31 28 25 353 5 357 343
36 31 29 48 67 70 78 57 47 54 75 77 75 55 45 45 55 64 60 58 86 75 63 47 51 54 50 50 49 41 50 30 21 357 5 23 28 32 28 19 359 1 350
28 36 36 37 61 61 66 54 61 62 82 72 68 55 69 51 51 59 64 48 74 86 67 50 33 50 48 48 47 41 39 26 18 14 354 1 30 29 24 15 11 357 1
80 66 38 34 45 69 69 35 47 56 45 65 83 70 50 44 66 62 65 74 78 79 68 44 32 51 48 44 40 41 39 28 356 36 35 27 23 18 15 359 349 356 85
97 92 74 46 35 27 62 46 42 75 91 67 82 79 59 44 39 60 69 71 75 76 80 67 58 54 50 39 49 49 30 44 46 43 33 20 20 4 7 354 335 344 7
157 168 151 138 152 200 170 164 151 147 128 135 132 138 137 73 47 32 51 50 65 60 52 41 63 66 57 59 25 33 32 37 51 43 32 17 17 13 16 357 3 358 6
178 187 193 171 184 161 127 152 114 327 156 170 189 158 139 121 191 91 85 75 77 77 47 42 37 36 17 14 5 20 32 40 46 27 38 25 32 15 24 4 12 6 22
196 204 205 190 185 167 138 60 142 137 96 114 157 143 15 135 140 127 90 82 91 106 51 83 37 56 59 24 22 3 17 38 32 44 39 31 17 31 19 345 350 32 19
202 196 192 189 181 178 173 170 181 208 167 195 150 169 174 157 153 148 131 88 91 84 102 142 139 110 84 49 39 24 26 9 16 38 43 31 18 9 53 354 342 357 4
200 197 189 193 192 185 192 189 171 179 201 258 229 200 191 179 164 165 150 122 70 40 120 168 174 151 133 106 63 35 12 1 6 14 7 357 6 359 342 40 29 42 13
200 205 197 185 190 191 185 191 193 187 199 182 131 212 212 199 189 171 177 134 149 169 198 177 190 176 159 139 116 66 332 318 288 355 346 356 337 79 347 357 22 31 64
202 203 189 192 185 184 182 187 189 205 202 197 192 198 163 110 193 219 198 154 155 177 185 176 190 194 177 155 173 179 194 38 24 13 318 347 345 56 39 342 347 359 15
193 195 196 190 191 195 196 203 207 203 210 205 210 182 184 182 195 184 183 187 187 195 196 190 189 196 192 183 177 193 187 223 191 178 320 358 12 12 321 78 339 345 18
190 192 194 201 197 195 201 202 200 202 201 199 202 198 203 188 192 191 194 200 201 190 180 176 190 196 192 183 182 179 196 218 241 133 31 334 280 253 238 120 78 80 341
190 190 193 198 201 201 202 205 201 203 205 204 194 189 201 197 207 206 205 198 186 189 184 176 181 202 197 184 185 180 181 201 196 161 166 219 331 284 199 195 196 202 193
199 197 196 196 197 200 204 204 207 204 204 202 196 195 198 205 204 210 208 195 189 189 185 190 198 201 198 202 195 199 205 201 185 187 180 183 219 264 213 188 201 207 194
202 203 202 199 197 201 203 206 203 199 198 200 201 202 199 199 205 206 201 192 191 189 196 195 199 207 206 203 207 201 209 214 190 188 190 184 214 222 208 190 200 205 193
208 209 208 203 202 199 199 200 204 201 204 204 205 203 200 201 205 201 195 193 195 201 197 199 202 199 202 210 213 211 210 218 214 211 198 193 213 216 190 201 214 204 202